BTK370 WALL-WARA

Flight info

Callsign BTK370
Flight time 1h 19m
Altitude 34000
Route BDM W31 SBR
Aircraft B738/M-SDE2E3FGHIRWXY/LB1

Departure

Time 2026-05-08 08:38
Airport Sultan Aji Muhammad Sulaiman Sepinggan International Airport (WALL)

Arrival

Time 2026-05-08 09:57
Airport Abdul Rachman Saleh Airport (WARA)
Time Latitude Longitude Altitude Speed Heading
2026-05-08 08:11 -1.26199 116.90135 20 ft 0 kts 336°
2026-05-08 08:30 -1.26200 116.90135 20 ft 2 kts 336°
2026-05-08 08:30 -1.26248 116.90151 20 ft 4 kts
2026-05-08 08:31 -1.26269 116.90144 20 ft 3 kts 63°
2026-05-08 08:31 -1.26271 116.90141 20 ft 1 kts 68°
2026-05-08 08:34 -1.26271 116.90142 20 ft 0 kts 68°
2026-05-08 08:35 -1.26265 116.90157 20 ft 5 kts 68°
2026-05-08 08:35 -1.26241 116.90215 21 ft 12 kts 68°
2026-05-08 08:35 -1.26204 116.90303 20 ft 12 kts 70°
2026-05-08 08:35 -1.26230 116.90366 21 ft 10 kts 124°
2026-05-08 08:36 -1.26268 116.90423 22 ft 10 kts 123°
2026-05-08 08:36 -1.26294 116.90454 21 ft 0 kts 139°
2026-05-08 08:37 -1.26302 116.90460 22 ft 4 kts 146°
2026-05-08 08:37 -1.26345 116.90471 21 ft 8 kts 180°
2026-05-08 08:37 -1.26405 116.90455 24 ft 10 kts 207°
2026-05-08 08:37 -1.26445 116.90380 21 ft 24 kts 250°
2026-05-08 08:38 -1.26626 116.89947 21 ft 109 kts 247°
2026-05-08 08:38 -1.27018 116.89031 115 ft 169 kts 246°
2026-05-08 08:38 -1.27590 116.87917 790 ft 191 kts 237°
2026-05-08 08:38 -1.28393 116.86830 1724 ft 203 kts 227°
2026-05-08 08:39 -1.29469 116.85773 2012 ft 230 kts 223°
2026-05-08 08:39 -1.30680 116.84657 2426 ft 244 kts 222°
2026-05-08 08:39 -1.31987 116.83450 2788 ft 263 kts 223°
2026-05-08 08:39 -1.33341 116.82180 3573 ft 268 kts 223°
2026-05-08 08:40 -1.34697 116.80890 4441 ft 272 kts 223°
2026-05-08 08:40 -1.36070 116.79569 5262 ft 275 kts 224°
2026-05-08 08:40 -1.37457 116.78224 6065 ft 280 kts 224°
2026-05-08 08:40 -1.38860 116.76854 6872 ft 284 kts 224°
2026-05-08 08:41 -1.40282 116.75459 7615 ft 289 kts 224°
2026-05-08 08:41 -1.41724 116.74040 8372 ft 293 kts 224°
2026-05-08 08:41 -1.43179 116.72605 9119 ft 296 kts 224°
2026-05-08 08:41 -1.44635 116.71167 9824 ft 300 kts 224°
2026-05-08 08:42 -1.46147 116.69670 10426 ft 309 kts 225°
2026-05-08 08:42 -1.47714 116.68118 10587 ft 332 kts 225°
2026-05-08 08:42 -1.49389 116.66456 10955 ft 345 kts 225°
2026-05-08 08:42 -1.51108 116.64751 11562 ft 350 kts 225°
2026-05-08 08:43 -1.52839 116.63034 12234 ft 352 kts 225°
2026-05-08 08:43 -1.54585 116.61301 12907 ft 355 kts 225°
2026-05-08 08:43 -1.56343 116.59555 13538 ft 358 kts 225°
2026-05-08 08:43 -1.58116 116.57794 14156 ft 361 kts 225°
2026-05-08 08:44 -1.59909 116.56015 14738 ft 365 kts 225°
2026-05-08 08:44 -1.61716 116.54219 15313 ft 368 kts 225°
2026-05-08 08:44 -1.63542 116.52406 15881 ft 371 kts 225°
2026-05-08 08:44 -1.65380 116.50579 16441 ft 374 kts 225°
2026-05-08 08:45 -1.67212 116.48761 16985 ft 378 kts 225°
2026-05-08 08:45 -1.69088 116.46898 17507 ft 381 kts 225°
2026-05-08 08:45 -1.70978 116.45023 18012 ft 384 kts 225°
2026-05-08 08:45 -1.72881 116.43134 18539 ft 387 kts 225°
2026-05-08 08:46 -1.74801 116.41228 19027 ft 391 kts 225°
2026-05-08 08:46 -1.76738 116.39305 19501 ft 394 kts 225°
2026-05-08 08:46 -1.78689 116.37367 19971 ft 397 kts 225°
2026-05-08 08:46 -1.80652 116.35417 20425 ft 400 kts 225°
2026-05-08 08:47 -1.82636 116.33447 20855 ft 403 kts 225°
2026-05-08 08:47 -1.84628 116.31467 21245 ft 406 kts 225°
2026-05-08 08:47 -1.86640 116.29469 21641 ft 409 kts 225°
2026-05-08 08:47 -1.88664 116.27460 22040 ft 411 kts 225°
2026-05-08 08:48 -1.90700 116.25438 22426 ft 414 kts 225°
2026-05-08 08:48 -1.92749 116.23403 22793 ft 417 kts 225°
2026-05-08 08:48 -1.94811 116.21354 23158 ft 419 kts 225°
2026-05-08 08:48 -1.96886 116.19293 23510 ft 421 kts 225°
2026-05-08 08:49 -1.98968 116.17225 23853 ft 424 kts 225°
2026-05-08 08:49 -2.01065 116.15142 24181 ft 426 kts 225°
2026-05-08 08:49 -2.03172 116.13049 24510 ft 428 kts 225°
2026-05-08 08:49 -2.05286 116.10948 24824 ft 430 kts 225°
2026-05-08 08:50 -2.07412 116.08835 25139 ft 432 kts 224°
2026-05-08 08:50 -2.09554 116.06708 25449 ft 434 kts 225°
2026-05-08 08:50 -2.11697 116.04578 25752 ft 436 kts 224°
2026-05-08 08:50 -2.13826 116.02462 26020 ft 438 kts 224°
2026-05-08 08:51 -2.15996 116.00305 26302 ft 440 kts 224°
2026-05-08 08:51 -2.18176 115.98138 26607 ft 442 kts 224°
2026-05-08 08:51 -2.20359 115.95970 26886 ft 444 kts 224°
2026-05-08 08:51 -2.22553 115.93790 27154 ft 445 kts 224°
2026-05-08 08:52 -2.24755 115.91603 27401 ft 447 kts 224°
2026-05-08 08:52 -2.26968 115.89403 27661 ft 449 kts 224°
2026-05-08 08:52 -2.29188 115.87195 27935 ft 451 kts 224°
2026-05-08 08:52 -2.31411 115.84985 28178 ft 452 kts 224°
2026-05-08 08:53 -2.33646 115.82763 28414 ft 454 kts 224°
2026-05-08 08:53 -2.35891 115.80532 28651 ft 456 kts 224°
2026-05-08 08:53 -2.38143 115.78295 28860 ft 458 kts 224°
2026-05-08 08:53 -2.40407 115.76044 29098 ft 459 kts 224°
2026-05-08 08:54 -2.42672 115.73785 29331 ft 461 kts 224°
2026-05-08 08:54 -2.44944 115.71520 29553 ft 462 kts 224°
2026-05-08 08:54 -2.47226 115.69250 29774 ft 463 kts 224°
2026-05-08 08:54 -2.49517 115.66975 29979 ft 465 kts 224°
2026-05-08 08:55 -2.51820 115.64687 30177 ft 466 kts 224°
2026-05-08 08:55 -2.54123 115.62399 30380 ft 467 kts 224°
2026-05-08 08:55 -2.56430 115.60106 30642 ft 467 kts 224°
2026-05-08 08:55 -2.58729 115.57820 30935 ft 466 kts 224°
2026-05-08 08:56 -2.61027 115.55535 31236 ft 465 kts 224°
2026-05-08 08:56 -2.63318 115.53256 31514 ft 465 kts 224°
2026-05-08 08:56 -2.65613 115.50972 31753 ft 465 kts 224°
2026-05-08 08:56 -2.67906 115.48691 32018 ft 465 kts 224°
2026-05-08 08:57 -2.70194 115.46415 32302 ft 464 kts 224°
2026-05-08 08:57 -2.72450 115.44169 32568 ft 463 kts 224°
2026-05-08 08:57 -2.74762 115.41869 32838 ft 463 kts 224°
2026-05-08 08:57 -2.77046 115.39597 33101 ft 463 kts 224°
2026-05-08 08:58 -2.79332 115.37323 33358 ft 463 kts 224°
2026-05-08 08:58 -2.81608 115.35056 33637 ft 462 kts 224°
2026-05-08 08:58 -2.83889 115.32786 33789 ft 463 kts 224°
2026-05-08 08:58 -2.86185 115.30501 33771 ft 465 kts 224°
2026-05-08 08:59 -2.90728 115.25978 33770 ft 462 kts 224°
2026-05-08 08:59 -2.95270 115.21456 33773 ft 459 kts 224°
2026-05-08 09:00 -2.99794 115.16953 33782 ft 458 kts 224°
2026-05-08 09:00 -3.04311 115.12456 33763 ft 457 kts 224°
2026-05-08 09:01 -3.06574 115.10231 33031 ft 463 kts 217°
2026-05-08 09:01 -3.09347 115.08482 32524 ft 467 kts 210°
2026-05-08 09:01 -3.11913 115.06576 33133 ft 460 kts 224°
2026-05-08 09:01 -3.14041 115.04172 33216 ft 462 kts 231°
2026-05-08 09:02 -3.16026 115.01635 33362 ft 463 kts 231°
2026-05-08 09:02 -3.18034 114.99170 33486 ft 463 kts 229°
2026-05-08 09:02 -3.20162 114.96758 33617 ft 463 kts 226°
2026-05-08 09:02 -3.22379 114.94418 33734 ft 463 kts 225°
2026-05-08 09:03 -3.26942 114.89856 33769 ft 463 kts 224°
2026-05-08 09:03 -3.31534 114.85323 33781 ft 464 kts 224°
2026-05-08 09:04 -3.36112 114.80770 33782 ft 464 kts 224°
2026-05-08 09:04 -3.40685 114.76208 33783 ft 464 kts 224°
2026-05-08 09:05 -3.45661 114.72135 33781 ft 462 kts 208°
2026-05-08 09:05 -3.51405 114.69251 33772 ft 462 kts 205°
2026-05-08 09:06 -3.57209 114.66455 33778 ft 462 kts 205°
2026-05-08 09:06 -3.62953 114.63648 33781 ft 462 kts 205°
2026-05-08 09:07 -3.68722 114.60795 33776 ft 462 kts 205°
2026-05-08 09:07 -3.74482 114.57934 33770 ft 462 kts 205°
2026-05-08 09:08 -3.80244 114.55072 33781 ft 462 kts 205°
2026-05-08 09:08 -3.86003 114.52211 33782 ft 462 kts 205°
2026-05-08 09:09 -3.91756 114.49353 33779 ft 461 kts 205°
2026-05-08 09:09 -3.97506 114.46498 33767 ft 462 kts 205°
2026-05-08 09:10 -4.03265 114.43637 33779 ft 461 kts 205°
2026-05-08 09:10 -4.09010 114.40783 33780 ft 461 kts 205°
2026-05-08 09:11 -4.14748 114.37933 33782 ft 460 kts 205°
2026-05-08 09:11 -4.19519 114.35562 33774 ft 460 kts 205°
2026-05-08 09:12 -4.26213 114.32234 33780 ft 459 kts 205°
2026-05-08 09:12 -4.30967 114.29872 33769 ft 458 kts 205°
2026-05-08 09:13 -4.37612 114.26565 33770 ft 458 kts 205°
2026-05-08 09:13 -4.43327 114.23725 33768 ft 458 kts 205°
2026-05-08 09:14 -4.48073 114.21365 33782 ft 458 kts 205°
2026-05-08 09:14 -4.53788 114.18521 33788 ft 458 kts 205°
2026-05-08 09:15 -4.59493 114.15672 33786 ft 459 kts 206°
2026-05-08 09:15 -4.65224 114.12781 33801 ft 462 kts 205°
2026-05-08 09:16 -4.70990 114.09939 33788 ft 461 kts 205°
2026-05-08 09:16 -4.76742 114.07095 33784 ft 460 kts 205°
2026-05-08 09:17 -4.82471 114.04244 33785 ft 459 kts 206°
2026-05-08 09:17 -4.88183 114.01396 33787 ft 457 kts 206°
2026-05-08 09:18 -4.93860 113.98580 33793 ft 454 kts 206°
2026-05-08 09:18 -4.99528 113.95768 33785 ft 454 kts 205°
2026-05-08 09:19 -5.05174 113.93027 33796 ft 454 kts 205°
2026-05-08 09:19 -5.10857 113.90278 33795 ft 453 kts 205°
2026-05-08 09:20 -5.16534 113.87519 33798 ft 453 kts 205°
2026-05-08 09:20 -5.22209 113.84755 33797 ft 454 kts 206°
2026-05-08 09:21 -5.27897 113.81985 33799 ft 455 kts 206°
2026-05-08 09:23 -5.47833 113.72271 33799 ft 455 kts 206°
2026-05-08 09:23 -5.53520 113.69500 33797 ft 454 kts 206°
2026-05-08 09:24 -5.59207 113.66727 33795 ft 454 kts 206°
2026-05-08 09:24 -5.64888 113.63957 33799 ft 453 kts 206°
2026-05-08 09:25 -5.70523 113.61208 33806 ft 453 kts 206°
2026-05-08 09:25 -5.76190 113.58443 33805 ft 452 kts 206°
2026-05-08 09:26 -5.81848 113.55682 33807 ft 452 kts 206°
2026-05-08 09:26 -5.87499 113.52923 33804 ft 451 kts 206°
2026-05-08 09:27 -5.93148 113.50165 33804 ft 451 kts 206°
2026-05-08 09:27 -5.98762 113.47424 33807 ft 451 kts 206°
2026-05-08 09:28 -6.04415 113.44664 33811 ft 451 kts 206°
2026-05-08 09:28 -6.10065 113.41903 33804 ft 451 kts 206°
2026-05-08 09:29 -6.15718 113.39139 33809 ft 452 kts 206°
2026-05-08 09:29 -6.21374 113.36374 33804 ft 452 kts 206°
2026-05-08 09:30 -6.26990 113.33615 33806 ft 452 kts 207°
2026-05-08 09:30 -6.32594 113.30760 33805 ft 451 kts 207°
2026-05-08 09:31 -6.38187 113.27886 33803 ft 451 kts 207°
2026-05-08 09:31 -6.43777 113.25022 33808 ft 451 kts 207°
2026-05-08 09:32 -6.49351 113.22172 33794 ft 445 kts 207°
2026-05-08 09:32 -6.52088 113.20774 33604 ft 437 kts 207°
2026-05-08 09:32 -6.54778 113.19401 33307 ft 429 kts 207°
2026-05-08 09:32 -6.57431 113.18046 32886 ft 426 kts 207°
2026-05-08 09:33 -6.60061 113.16702 32501 ft 422 kts 207°
2026-05-08 09:33 -6.62675 113.15366 32107 ft 419 kts 207°
2026-05-08 09:33 -6.65269 113.14039 31705 ft 417 kts 207°
2026-05-08 09:33 -6.67844 113.12722 31303 ft 414 kts 207°
2026-05-08 09:34 -6.70399 113.11416 30909 ft 411 kts 207°
2026-05-08 09:34 -6.72910 113.10133 30517 ft 408 kts 207°
2026-05-08 09:34 -6.75438 113.08841 30126 ft 406 kts 207°
2026-05-08 09:34 -6.77951 113.07556 29735 ft 404 kts 207°
2026-05-08 09:35 -6.80443 113.06280 29343 ft 401 kts 207°
2026-05-08 09:35 -6.82921 113.05013 28939 ft 398 kts 207°
2026-05-08 09:35 -6.85385 113.03752 28534 ft 396 kts 207°
2026-05-08 09:35 -6.87828 113.02502 28137 ft 394 kts 207°
2026-05-08 09:36 -6.90263 113.01256 27732 ft 391 kts 207°
2026-05-08 09:36 -6.92680 113.00019 27339 ft 389 kts 207°
2026-05-08 09:36 -6.95082 112.98790 26942 ft 386 kts 207°
2026-05-08 09:36 -6.97471 112.97567 26552 ft 384 kts 207°
2026-05-08 09:37 -6.99848 112.96350 26157 ft 382 kts 207°
2026-05-08 09:37 -7.02207 112.95141 25768 ft 380 kts 207°
2026-05-08 09:37 -7.04553 112.93940 25364 ft 377 kts 207°
2026-05-08 09:37 -7.06889 112.92743 24983 ft 375 kts 207°
2026-05-08 09:38 -7.09209 112.91554 24608 ft 373 kts 207°
2026-05-08 09:38 -7.11515 112.90373 24224 ft 371 kts 207°
2026-05-08 09:38 -7.13809 112.89197 23845 ft 369 kts 207°
2026-05-08 09:38 -7.16091 112.88029 23466 ft 367 kts 207°
2026-05-08 09:39 -7.18357 112.86867 23089 ft 364 kts 207°
2026-05-08 09:39 -7.20607 112.85713 22714 ft 362 kts 207°
2026-05-08 09:39 -7.22849 112.84564 22344 ft 360 kts 207°
2026-05-08 09:39 -7.25078 112.83423 21972 ft 358 kts 207°
2026-05-08 09:40 -7.27295 112.82286 21600 ft 356 kts 207°
2026-05-08 09:40 -7.29497 112.81156 21233 ft 354 kts 207°
2026-05-08 09:40 -7.31684 112.80033 20867 ft 352 kts 207°
2026-05-08 09:40 -7.33859 112.78918 20514 ft 349 kts 207°
2026-05-08 09:41 -7.35994 112.77823 20138 ft 348 kts 207°
2026-05-08 09:41 -7.38234 112.76943 19751 ft 347 kts 190°
2026-05-08 09:41 -7.40621 112.76667 19430 ft 343 kts 186°
2026-05-08 09:41 -7.42996 112.76446 19044 ft 342 kts 186°
2026-05-08 09:42 -7.45356 112.76228 18695 ft 340 kts 186°
2026-05-08 09:42 -7.47707 112.76005 18338 ft 338 kts 186°
2026-05-08 09:42 -7.50038 112.75777 17993 ft 336 kts 186°
2026-05-08 09:42 -7.52361 112.75543 17642 ft 334 kts 186°
2026-05-08 09:43 -7.54668 112.75309 17301 ft 332 kts 186°
2026-05-08 09:43 -7.56960 112.75074 16952 ft 330 kts 186°
2026-05-08 09:43 -7.59241 112.74839 16612 ft 328 kts 186°
2026-05-08 09:43 -7.61504 112.74605 16271 ft 326 kts 186°
2026-05-08 09:44 -7.63754 112.74373 15933 ft 324 kts 186°
2026-05-08 09:44 -7.65994 112.74141 15594 ft 323 kts 186°
2026-05-08 09:44 -7.68224 112.73910 15256 ft 321 kts 186°
2026-05-08 09:44 -7.70435 112.73680 14921 ft 319 kts 186°
2026-05-08 09:45 -7.72617 112.73455 14741 ft 311 kts 186°
2026-05-08 09:45 -7.74753 112.73234 14595 ft 304 kts 186°
2026-05-08 09:45 -7.76831 112.73018 14459 ft 296 kts 186°
2026-05-08 09:45 -7.78853 112.72808 14329 ft 288 kts 186°
2026-05-08 09:46 -7.80794 112.72606 14207 ft 280 kts 186°
2026-05-08 09:46 -7.82708 112.72408 14084 ft 272 kts 186°
2026-05-08 09:46 -7.84565 112.72216 13971 ft 264 kts 186°
2026-05-08 09:46 -7.86382 112.72027 13785 ft 263 kts 186°
2026-05-08 09:47 -7.88207 112.71838 13531 ft 265 kts 186°
2026-05-08 09:47 -7.90043 112.71647 13269 ft 265 kts 186°
2026-05-08 09:47 -7.91875 112.71457 12999 ft 264 kts 186°
2026-05-08 09:47 -7.93697 112.71267 12717 ft 263 kts 186°
2026-05-08 09:48 -7.95519 112.71080 12412 ft 263 kts 186°
2026-05-08 09:48 -7.97315 112.70897 12355 ft 253 kts 186°
2026-05-08 09:48 -7.99082 112.70716 12021 ft 257 kts 186°
2026-05-08 09:48 -8.00865 112.70532 11747 ft 258 kts 186°
2026-05-08 09:49 -8.02661 112.70349 11442 ft 259 kts 186°
2026-05-08 09:49 -8.04456 112.70165 11149 ft 260 kts 185°
2026-05-08 09:49 -8.06256 112.69981 10856 ft 261 kts 186°
2026-05-08 09:49 -8.08058 112.69787 10543 ft 260 kts 185°
2026-05-08 09:50 -8.09859 112.69608 10245 ft 260 kts 185°
2026-05-08 09:50 -8.11659 112.69425 9950 ft 260 kts 185°
2026-05-08 09:50 -8.13468 112.69242 9649 ft 261 kts 185°
2026-05-08 09:50 -8.15272 112.69057 9350 ft 261 kts 185°
2026-05-08 09:51 -8.17077 112.68872 9051 ft 261 kts 185°
2026-05-08 09:51 -8.18887 112.68686 8755 ft 261 kts 185°
2026-05-08 09:51 -8.20668 112.68757 8439 ft 261 kts 164°
2026-05-08 09:51 -8.22283 112.69547 8164 ft 259 kts 141°
2026-05-08 09:52 -8.23456 112.70907 7876 ft 258 kts 118°
2026-05-08 09:52 -8.24022 112.72611 7586 ft 258 kts 96°
2026-05-08 09:52 -8.23901 112.74405 7294 ft 258 kts 74°
2026-05-08 09:52 -8.23104 112.76019 6991 ft 259 kts 51°
2026-05-08 09:53 -8.21744 112.77197 6698 ft 260 kts 29°
2026-05-08 09:53 -8.20028 112.77739 6398 ft 261 kts
2026-05-08 09:53 -8.18220 112.77629 6111 ft 261 kts 351°
2026-05-08 09:53 -8.16442 112.77231 5817 ft 262 kts 346°
2026-05-08 09:54 -8.14672 112.76774 5504 ft 263 kts 346°
2026-05-08 09:54 -8.12898 112.76327 5200 ft 263 kts 347°
2026-05-08 09:54 -8.11120 112.75890 4897 ft 263 kts 347°
2026-05-08 09:54 -8.09338 112.75455 4595 ft 263 kts 347°
2026-05-08 09:55 -8.07583 112.75025 4417 ft 258 kts 347°
2026-05-08 09:55 -8.05827 112.74595 4081 ft 258 kts 347°
2026-05-08 09:55 -8.04094 112.74171 3742 ft 254 kts 347°
2026-05-08 09:55 -8.02396 112.73755 3407 ft 249 kts 347°
2026-05-08 09:56 -8.00724 112.73345 3088 ft 245 kts 347°
2026-05-08 09:56 -7.99085 112.72944 2755 ft 239 kts 347°
2026-05-08 09:56 -7.97533 112.72564 2446 ft 225 kts 347°
2026-05-08 09:56 -7.96051 112.72201 2168 ft 212 kts 347°
2026-05-08 09:57 -7.93401 112.71553 1731 ft 150 kts 346°
2026-05-08 09:57 -7.93002 112.71454 1734 ft 0 kts 346°
2026-05-08 09:57 -7.93001 112.71454 1731 ft 0 kts 346°
2026-05-08 09:58 -7.92999 112.71453 1731 ft 0 kts 346°
2026-05-08 09:58 -7.92998 112.71453 1734 ft 0 kts 346°
2026-05-08 09:58 -7.92997 112.71453 1734 ft 0 kts 346°
2026-05-08 09:58 -7.92945 112.71440 1734 ft 21 kts 346°
2026-05-08 09:59 -7.92770 112.71398 1732 ft 30 kts 347°
2026-05-08 09:59 -7.92550 112.71344 1735 ft 35 kts 346°
2026-05-08 09:59 -7.92304 112.71284 1733 ft 37 kts 346°
2026-05-08 09:59 -7.92097 112.71224 1730 ft 13 kts 326°
2026-05-08 10:00 -7.92081 112.71216 1729 ft 1 kts 354°
2026-05-08 10:00 -7.92078 112.71220 1731 ft 1 kts 54°
2026-05-08 10:00 -7.92081 112.71229 1734 ft 3 kts 111°
2026-05-08 10:00 -7.92223 112.71265 1734 ft 33 kts 166°
2026-05-08 10:01 -7.92492 112.71334 1734 ft 47 kts 165°
2026-05-08 10:01 -7.92719 112.71390 1734 ft 53 kts 168°
2026-05-08 10:01 -7.93004 112.71451 1734 ft 29 kts 167°
2026-05-08 10:01 -7.93195 112.71498 1733 ft 27 kts 166°
2026-05-08 10:02 -7.93368 112.71542 1735 ft 24 kts 166°
2026-05-08 10:02 -7.93503 112.71571 1735 ft 12 kts 189°
2026-05-08 10:02 -7.93538 112.71508 1731 ft 10 kts 258°
2026-05-08 10:02 -7.93554 112.71434 1731 ft 11 kts 258°
2026-05-08 10:03 -7.93574 112.71352 1729 ft 13 kts 253°
2026-05-08 10:03 -7.93600 112.71272 1735 ft 9 kts 222°
2026-05-08 10:03 -7.93661 112.71272 1735 ft 9 kts 167°
2026-05-08 10:03 -7.93678 112.71276 1735 ft 0 kts 167°
2026-05-08 10:04 -7.93681 112.71277 1735 ft 2 kts 167°
2026-05-08 10:04 -7.93715 112.71281 1730 ft 0 kts 203°
2026-05-08 10:04 -7.93718 112.71279 1733 ft 4 kts 214°
2026-05-08 10:04 -7.93739 112.71233 1735 ft 0 kts 258°
2026-05-08 10:05 -7.93739 112.71232 1731 ft 1 kts 256°
2026-05-08 10:05 -7.93739 112.71230 1734 ft 0 kts 256°
2026-05-08 10:05 -7.93740 112.71229 1732 ft 0 kts 256°